www.pogodaiklimat.ru

Погода и климат >> Архив погоды >> Россия >> Красноярский край >> Шалинское


ПОГОДА в Шалинском

  • Прогноз погоды в Шалинском
  • Монитор погоды в Шалинском

АРХИВ ПОГОДЫ в Шалинском

Время (UTC), дата Ветер
(напр.,м/с)
 
Видим.   Явления Облачность Т
(С)
Тd
(С)
f
(%)
Тe
(С)
Тes
(С)
Комфортность P
(гПа)
Po
(гПа)
Тmin
(С)
Tmax
(С)
R
(мм)
R24
(мм)
S
(см)
06 17.02 ЮЗ 6
{13}
50 км позёмок 8/1 1000 м
[Cu hum Ac trans Ci fib]
-1.3 -10.7 49 -8 -7 1017.5 967.9
09 17.02 ЮЗ 4
{13}
50 км {метель} 9/0
[Ac lent Ci fib]
+0.7 -10.5 43 -4 -3 1015.1 965.9
12 17.02 Ю 3
{13}
50 км {метель} 1/0
[Ac lent]
-1.0 -11.2 46 -5 -5 1014.6 965.1 +1.1
15 17.02 Ю 2 50 км 10/0
[Cs]
-3.2 -13.1 46 -7 -7 1013.5 963.7
18 17.02 Ю 2 50 км 10/0
[Cs]
-4.5 -13.7 49 -8 -8 1012.8 962.9
21 17.02 ЮВ 1 50 км 8/3 1000 м
[Cu hum Ac lent Ci fib]
-5.2 -14.3 49 -7 -7 1012.3 962.2
00 18.02 В 1 50 км 6/3 1000 м
[Cu hum Ac lent Ci fib]
-2.9 -14.2 41 -4 -4 1010.2 960.6 -6.1 11
03 18.02 Ю 2 50 км 9/0
[Ac lent Ci fib]
-1.9 -17.6 29 -5 -4 1010.0 960.6
06 18.02 Ю 3
{10}
50 км 9/0
[Ac lent Ci fib]
+0.6 -17.2 25 -3 -1 1008.5 959.6
09 18.02 ЮЗ 4
{12}
50 км 9/0
[Ac lent Ci fib]
+2.2 -13.7 30 -2 -1 1007.5 958.9
12 18.02 Ю 4
{12}
50 км 9/0
[Ac lent Ci fib]
+1.2 -14.9 29 -3 -3 1007.9 959.0 +3.0
15 18.02 ЮЗ 6-11
{11}
50 км 9/0
[Ac lent Ci fib]
+1.0 -12.2 37 -4 -4 1008.1 959.2
18 18.02 ЮЗ 5
{13}
50 км 9/0
[Ac lent Ci fib]
+1.1 -12.6 35 -4 -4 1008.7 959.8
21 18.02 ЮЗ 4 50 км 9/3 600 м
[Cb cap Ci fib]
+0.5 -12.7 36 -4 -4 1009.8 960.9
00 19.02 Ю 4 50 км 9/1 600 м
[Cb cap Ac lent Ci fib]
+0.2 -14.0 33 -4 -4 1011.2 962.0 0.0 8
03 19.02 ЮЗ 5 50 км 9/4 600 м
[Cb cap Ci fib]
+1.2 -10.2 42 -4 -3 1012.6 963.7 -0.2
06 19.02 З 7-10
{15}
50 км позёмок 9/3 1000 м
[Cu med, cong Ci fib]
+2.2 -6.6 52 -4 -3 1014.2 965.4
09 19.02 З 4
{15}
50 км {метель} 6/1 1000 м
[Cu med, cong Ac lent Ci fib]
+1.8 -8.1 48 -2 -2 1016.0 967.0
12 19.02 ЮЗ 1
{15}
50 км {метель} 9/0
[Ci fib]
-2.0 -13.1 42 -3 -3 1019.2 969.3 +2.7
15 19.02 ЮЗ 3 50 км 3/0
[Ci fib]
-4.9 -12.2 57 -10 -10 1020.7 970.2
18 19.02 ЮВ 1 50 км 10/0
[Cs]
-6.8 -13.0 61 -9 -9 1021.7 970.8
21 19.02 ЮЗ 2 50 км 10/0
[Cs]
-7.2 -13.0 63 -11 -11 1022.5 971.5
00 20.02 штиль 0 50 км 10/0
[Cs]
-5.4 -10.5 67 -6 -6 1022.7 972.1 -8.0 7
03 20.02 ЮВ 1 50 км 4/0
[Ci fib]
-3.0 -9.3 62 -5 -3 1023.2 973.0
06 20.02 ЮЗ 5
{11}
50 км 3/0
[Ci fib]
+2.8 -6.8 49 -2 0 1021.7 972.6
09 20.02 ЮЗ 3 50 км 9/0
[Ac trans Ci fib]
+4.2 -8.3 40 +1 +2 1022.0 973.1
12 20.02 Ю 1 50 км 9/0
[Ac trans]
+0.9 -7.9 52 -0 -0 1022.8 973.2 +5.1
15 20.02 СВ 1 50 км 9/0
[Ac lent Ci fib]
-3.9 -8.0 73 -6 -6 1022.2 971.8
18 20.02 Ю 1 50 км 9/0
[Ac lent Ci fib]
-4.6 -8.1 76 -7 -7 1021.8 971.4
21 20.02 ЮВ 1 50 км 9/0
[Ac lent Ci fib]
-5.7 -9.5 75 -8 -8 1021.0 970.5
00 21.02 ЮВ 1 50 км 9/0
[Ac lent Ci fib]
-4.8 -9.6 69 -7 -7 1020.9 970.4 -5.9 7
03 21.02 З 2 50 км 9/3 600 м
[Cb cap Ac lent Ci fib]
-1.8 -10.6 51 -5 -4 1020.6 970.7 -6.0
06 21.02 ЮЗ 3 50 км 9/0
[Ac lent Ci fib]
+5.2 -10.6 31 +3 +5 1018.4 969.9
09 21.02 ЮЗ 3 50 км 6/0
[Ci fib]
+5.8 -11.0 29 +4 +4 1017.9 969.4
12 21.02 СЗ 1 50 км 8/3 600 м
[Cb cap Ac lent Ci fib]
+2.9 -11.2 35 +2 +2 1019.9 970.9 +5.9
15 21.02 З 3 50 км 10/10 600 м
[Cb cap]
+0.7 -9.3 47 -3 -3 1022.6 973.0
18 21.02 ЮЗ 2 4000 м слаб. ливневой снег 10/10 600 м
[Cb cap]
-2.0 -2.9 94 -6 -6 1026.4 976.2
21 21.02 ЮЗ 3 4000 м слаб. ливневой снег 10/10 600 м
[Cb cap]
-2.1 -3.3 91 -7 -7 1028.1 977.8
00 22.02 ЮЗ 4
{10}
50 км {ливн. осадки} 4/4 600 м
[Cb cap]
-4.1 -8.7 70 -10 -10 1031.1 980.3 -4.1 0.8 8
03 22.02 ЮЗ 6-11
{12}
50 км позёмок 4/1 1000 м
[Cu hum Ci fib]
-4.8 -12.0 57 -12 -11 1033.5 982.4 -5.2
06 22.02 ЮЗ 6-11
{12}
50 км позёмок {ливн. осадки} 8/6 600 м
[Cb cap Ci fib]
-4.2 -13.7 48 -11 -11 1034.4 983.4
09 22.02 ЮЗ 5
{11}
50 км {ливн. осадки, метель} 6/3 600 м
[Cb cap Ci fib]
-3.5 -13.6 45 -10 -9 1034.5 983.7
12 22.02 ЮЗ 3
{11}
50 км {ливн. осадки, метель} 8/0
[Ac lent Ci fib]
-4.8 -14.8 45 -10 -10 1035.3 984.1 -2.9 0.0
15 22.02 ЮЗ 3 50 км 3/0
[Ci fib]
-5.8 -13.6 54 -11 -11 1035.1 983.7
18 22.02 ЮЗ 5
{11}
50 км позёмок 9/0
[Ci fib]
-5.9 -12.7 59 -13 -13 1033.9 982.6
21 22.02 ЮЗ 5
{10}
50 км позёмок 9/0
[Ci fib]
-6.1 -11.9 63 -13 -13 1033.5 982.2
00 23.02 ЮЗ 4 10 км слаб. ливневой снег {метель} 10/10 600 м
[Cb cap]
-6.4 -9.6 78 -13 -13 1033.6 982.3 -6.8 0.2 8
03 23.02 ЮЗ 4 10 км слаб. ливневой снег 10/10 600 м
[Cb cap]
-5.4 -9.6 72 -12 -12 1033.7 982.6
06 23.02 З 6
{13}
50 км позёмок {ливн. осадки} 9/3 1000 м
[Cu hum Ac trans Ci fib]
-3.0 -12.2 49 -10 -9 1032.9 982.2
09 23.02 ЮЗ 6-10
{11}
50 км позёмок 10/0
[As trans]
-2.1 -11.6 48 -9 -8 1032.1 981.5
12 23.02 ЮЗ 4
{11}
50 км {метель} 10/3 600 м
[Cb cap Ac trans]
-2.3 -10.5 53 -8 -8 1031.7 981.1 -1.6 0.0
15 23.02 ЮЗ 3 50 км 10/10 600 м
[Cb cap]
-1.9 -11.8 47 -6 -6 1030.7 980.2
18 23.02 ЮЗ 4 50 км 10/10 600 м
[Cb cap]
-1.8 -11.6 47 -7 -7 1030.1 979.6
21 23.02 ЮЗ 5 50 км 9/8 600 м
[Cb cap Ci fib]
-2.2 -9.4 58 -8 -8 1028.9 978.6
00 24.02 ЮЗ 3 50 км 9/4 1000 м
[Sc Ac trans Ci fib]
-2.0 -11.5 48 -6 -6 1027.8 977.5 -2.5 7

 

Местоположение метеостанции Шалинское (Красноярский край, Россия): широта 55.72 долгота 93.75 высота над уровнем моря 399 м.

В архиве по умолчанию представлена погода в Шалинском за последнюю неделю. Архивные данные за месяц целиком и за предыдущие месяцы, начиная с января 2011 года, Вы можете получить, выбрав интересующий диапазон дат из раскрывающегося списка и нажав кнопку "Ввод!".


*Определитесь, кто Вы:
робот инопланетянин человек

Внимание! Время в таблицах - всемирное. Для получения местного времени необходимо прибавить поправку, которая равна 7 ч.

Смотрите также архив погоды в соседних городах и на ближайших метеорологических станциях:

Погода в Уяре (Красноярский край, Россия) (37 км)
Погода в Железногорске (Красноярский край, Россия) (61 км)
Погода в Роевом Ручье (Красноярский край, Россия) (69 км)
Погода в Анастасино (Красноярский край, Россия) (71 км)
Погода в Красноярске (Красноярский край, Россия) (71 км)
Погода в Минино (Красноярский край, Россия) (75 км)
Погода в Погорельском Бору (Красноярский край, Россия) (88 км)
Погода в Агинском (Красноярский край, Россия) (88 км)
Погода в Сухобузимском (Красноярский край, Россия) (92 км)
Погода в Емельяново (Красноярский край, Россия) (93 км)

Пояснения к столбцам:

Ветер - указаны скорость ветра в м/с - средняя за 10 мин, порывы в срок и между сроками (в фигурных скобках) и направление, откуда дует ветер: С - северный, СВ - северо-восточный, В - восточный, ЮВ - юго-восточный, Ю - южный, ЮЗ - юго-западный, З - западный, СЗ - северо-западный.
Видимость - горизонтальная дальность видимости в метрах или километрах. При видимости от 1 до 10 км при отсутствии осадков обычно наблюдается дымка, при ухудшении видимости до 1 км и менее - туман. В сухую погоду видимость может ухудшаться дымом, пылью или мглою.
Явления - указаны атмосферные явления, наблюдавшиеся в срок или в последний час перед сроком; фигурными скобками обозначены явления, наблюдавшиеся между сроками (за 1-3 часа до срока); квадратными скобками обозначены град или гололедные отложения с указанием их диаметра в мм.
Облачность - указаны через наклонную черту общая и нижняя облачность в баллах и высота нижней границы облаков в метрах; квадратными скобками обозначены формы облаков: Ci - перистые, Cs - перисто-слоистые, Cc - перисто-кучевые, Ac - высококучевые, As - высокослоистые, Sc - слоисто-кучевые, Ns - слоисто-дождевые, Cu - кучевые, Cb - кучево-дождевые. Подробнее классификацию облаков см. в Атласе облаков (PDF).
T - Температура воздуха - температура, измеренная на высоте 2 м над землей.
Td - Температура точки росы - температура, при понижении до которой содержащийся в воздухе водяной пар достигнет насыщения.
f - Относительная влажность воздуха - влажноcть воздуха, измеренная на высоте 2 м над землей.
Te - Эффективная температура - температура, которую ощущает одетый по сезону человек в тени. Характеристика душности погоды. При расчете учитывается влияние влажности воздуха и скорости ветра на теплоощущения человека.
Tes - Эффективная температура на солнце - температура, которую ощущает человек, с поправкой на солнечный нагрев. Характеристика знойности погоды. Зависит от высоты солнца над горизонтом, облачности и скорости ветра. Ночью, в пасмурную погоду, а также при ветре 12 м/с и более поправка равна нулю.
P - Атмосферное давление - приведенное к уровню моря атмосферное давление.
Po - Атмосферное давление - измеренное на уровне метеостанции атмосферное давление.
Tmin - Минимальная температура - минимум температуры воздуха на высоте 2 м над землей.
Tmax - Максимальная температура - максимум температуры воздуха на высоте 2 м над землей.
R - Количество осадков - Количество выпавших осадков за период времени, мм. При наведении курсора мыши на число - период времени, за который выпало указанное количество осадков.
R24 - Количество осадков - Количество выпавших осадков за 24 часа, мм.
S - Снежный покров - Высота снежного покрова, см. При наведении курсора мыши на число - состояние снежного покрова и степень покрытия местности в баллах.